Regional Weather Roundup
Issued by NWS

Home | Current Version | Previous Version | Text Only | Print | Product List | Glossary Off
Versions: 1 2 3 4 5 6 7 8 9 10 11 12 13 14 15 16 17 18 19 20 21 22 23 24 25 26 27 28 29 30 31 32 33 34 35 36 37 38 39 40 41 42 43 44 45 46 47 48 49 50

944
ASUS45 KCYS 290410
RWRWY

WYOMING REGIONAL WEATHER ROUNDUP
NATIONAL WEATHER SERVICE CHEYENNE WY
1000 PM MDT WED SEP 28 2016

NOTE:  "FAIR" INDICATES FEW OR NO CLOUDS BELOW 12,000 FEET
WITH NO SIGNIFICANT WEATHER AND/OR OBSTRUCTIONS TO VISIBILITY.

WYZ001-290500-
YELLOWSTONE NATIONAL PARK

CITY           SKY/WX    TMP DP  RH WIND       PRES   REMARKS
LK YELLOWSTONE   N/A     40  35  83 CALM      30.41S
W YELLOWSTONE  NOT AVBL

$$
WYZ002>013-054>058-071-098>099-290500-
NORTHERN WYOMING

CITY           SKY/WX    TMP DP  RH WIND       PRES   REMARKS
JACKSON        FAIR      48  39  71 N9        30.30R
CODY           FAIR      61  45  55 CALM      30.24S
GREYBULL       FAIR      66  42  41 E3        30.18R
WORLAND        FAIR      63  39  41 SE14      30.19S
SHERIDAN       FAIR      63  38  39 SE8       30.20F
BUFFALO        FAIR      65  35  33 S12       30.30S
GILLETTE       FAIR      55  46  71 S12       30.29R
HULETT         FAIR      61  45  55 CALM      30.31S
NEWCASTLE      FAIR      61  41  48 SE9G20    30.33R

$$
WYZ014>020-022>026-101>103-290500-
CENTRAL WYOMING

CITY           SKY/WX    TMP DP  RH WIND       PRES   REMARKS
BIG PINEY      FAIR      49  31  49 CALM      30.36R
PINEDALE       FAIR      43  32  65 NW5       30.37S
DUBOIS         FAIR      50  37  62 CALM      30.39R
LANDER         FAIR      58  40  51 SE3       30.28R
RIVERTON       FAIR      62  40  44 S9        30.29R
CASPER         FAIR      59  38  45 E6        30.30S
DOUGLAS        FAIR      56  38  50 SE9       30.34R

$$
WYZ021-027>030-104>119-290500-
SOUTHERN WYOMING

CITY           SKY/WX    TMP DP  RH WIND       PRES   REMARKS
EVANSTON       CLOUDY    59  40  49 SW14      30.35R
FORT BRIDGER   MOCLDY    62  35  36 S7        30.35R
ROCK SPRINGS   FAIR      61  34  36 S6        30.32S
DIXON          FAIR      59  33  37 E8        30.35R
RAWLINS        FAIR      57  33  40 NE9       30.35R
SARATOGA       FAIR      59  32  36 SE10G20   30.37S
LARAMIE        FAIR      57  33  40 SE15G24   30.44R
CHEYENNE       FAIR      56  35  45 SE9       30.42R
TORRINGTON     FAIR      56  40  55 E10       30.31R
PINE BLUFFS    FAIR      59  32  36 SE14      30.38R

$$




USA.gov is the U.S. government's official web portal to all federal, state and local government web resources and services.